Middletown, OH

2:47 PM EDT on August 18, 2017 (GMT -0400)
Hook Field Municipal

Weather History for KMWO - October, 2012

Change the Weather History Date:

Saturday, October 6, 2012

  Actual Average (KFFO) Record (KFFO)
Temperature  
Mean Temperature 46 °F -  
Max Temperature 55 °F 67 °F 87 °F (2007)
Min Temperature 37 °F 44 °F 32 °F (2004)
Degree Days  
Heating Degree Days 19    
Moisture  
Dew Point 39 °F    
Average Humidity 77    
Maximum Humidity 100    
Minimum Humidity 45    
Precipitation  
Precipitation 0.00 in - - ()
Sea Level Pressure  
Sea Level Pressure 30.12 in    
Wind  
Wind Speed 6 mph (WNW)    
Max Wind Speed 12 mph    
Max Gust Speed 10 mph    
Visibility 10 miles    
Events      
Averages and records for this station are not official NWS values.
T = Trace of Precipitation, MM = Missing Value Source: NWS Daily Summary

Daily Weather History Graph

Daily Weather History Graph

Search for Another Location

Airport or City:

Trip Planner

Search our weather history database for the weather conditions in past years. The results will help you decide how hot, cold, wet, or windy it might be!

Date:

Astronomy

Oct. 06, 2012 Rise Set
Actual Time 7:39 AM EDT 7:11 PM EDT
Civil Twilight 7:12 AM EDT 7:38 PM EDT
Nautical Twilight 6:41 AM EDT 8:09 PM EDT
Astronomical Twilight 6:09 AM EDT 8:40 PM EDT
Moon 11:27 PM EDT (10/6) 1:31 PM EDT (10/6)
Length of Visible Light 12h 26m
Length of Day
11h 32m
Waning Gibbous, 65% of the Moon is Illuminated
Oct 6
Waning Gibbous
Oct 8
Last Quarter
Oct 15
New
Oct 21
First Quarter
Oct 29
Full

Hourly Weather History & Observations

Time (EDT) Temp. Windchill Dew Point Humidity Pressure Visibility Wind Dir Wind Speed Gust Speed Precip Events Conditions
12:15 AM 44.4 °F 40.0 °F 44.4 °F 100% 30.08 in 3.0 mi NW 8.1 mph - N/A   Unknown
12:55 AM 42.8 °F 39.3 °F 42.8 °F 100% 30.07 in 3.0 mi NNW 5.8 mph - N/A   Unknown
1:15 AM 42.8 °F 39.3 °F 42.8 °F 100% 30.07 in 2.0 mi NNW 5.8 mph - N/A   Unknown
1:35 AM 41.4 °F 36.2 °F 41.4 °F 100% 30.06 in 2.0 mi North 8.1 mph - N/A   Unknown
1:55 AM 41.4 °F 38.4 °F 41.4 °F 100% 30.05 in 7.0 mi North 4.6 mph - N/A   Unknown
2:15 AM 41.4 °F 38.4 °F 41.4 °F 100% 30.07 in 10.0 mi WNW 4.6 mph - N/A   Overcast
2:55 AM 41.5 °F 38.6 °F 41.5 °F 100% 30.08 in 10.0 mi WNW 4.6 mph - N/A   Overcast
3:15 AM 41.7 °F 37.3 °F 41.7 °F 100% 30.08 in 10.0 mi NW 6.9 mph - N/A   Overcast
3:35 AM 41.9 °F 40.0 °F 41.7 °F 99% 30.07 in 10.0 mi NW 3.5 mph - N/A   Overcast
3:55 AM 42.4 °F 39.6 °F 42.3 °F 99% 30.08 in 10.0 mi WNW 4.6 mph - N/A   Overcast
4:15 AM 41.4 °F 39.4 °F 41.2 °F 99% 30.08 in 10.0 mi WNW 3.5 mph - N/A   Mostly Cloudy
4:35 AM 41.4 °F 39.4 °F 41.2 °F 99% 30.08 in 10.0 mi WNW 3.5 mph - N/A   Mostly Cloudy
4:55 AM 40.6 °F 38.6 °F 40.5 °F 99% 30.08 in 10.0 mi WNW 3.5 mph - N/A   Scattered Clouds
5:35 AM 40.1 °F 38.0 °F 39.9 °F 99% 30.08 in 10.0 mi WNW 3.5 mph - N/A   Clear
5:55 AM 39.7 °F - 39.7 °F 100% 30.09 in 10.0 mi Calm Calm - N/A   Clear
6:15 AM 38.8 °F - 38.5 °F 99% 30.09 in 10.0 mi Calm Calm - N/A   Clear
6:35 AM 38.1 °F 35.7 °F 37.9 °F 99% 30.09 in 10.0 mi SW 3.5 mph - N/A   Clear
6:55 AM 37.6 °F 35.1 °F 37.6 °F 100% 30.10 in 10.0 mi SW 3.5 mph - N/A   Clear
7:15 AM 37.6 °F 35.1 °F 37.6 °F 100% 30.11 in 10.0 mi WSW 3.5 mph - N/A   Clear
7:35 AM 37.6 °F 35.1 °F 37.6 °F 100% 30.13 in 10.0 mi SW 3.5 mph - N/A   Clear
7:55 AM 37.6 °F 35.1 °F 37.4 °F 99% 30.13 in 10.0 mi SSW 3.5 mph - N/A   Clear
8:15 AM 37.6 °F - 37.4 °F 99% 30.13 in 10.0 mi Calm Calm - N/A   Clear
8:35 AM 38.8 °F - 37.9 °F 97% 30.14 in 10.0 mi Calm Calm - N/A   Clear
8:55 AM 40.1 °F 38.0 °F 38.8 °F 95% 30.15 in 10.0 mi WSW 3.5 mph - N/A   Clear
9:15 AM 40.6 °F 38.6 °F 38.8 °F 93% 30.15 in 10.0 mi West 3.5 mph - N/A   Clear
9:35 AM 41.5 °F 38.6 °F 38.5 °F 89% 30.16 in 10.0 mi West 4.6 mph - N/A   Clear
9:55 AM 43.2 °F 39.7 °F 39.4 °F 86% 30.16 in 10.0 mi West 5.8 mph - N/A   Clear
10:15 AM 45.1 °F 42.0 °F 40.5 °F 84% 30.16 in 10.0 mi WSW 5.8 mph - N/A   Clear
10:35 AM 47.7 °F - 42.4 °F 82% 30.17 in 10.0 mi West 6.9 mph - N/A   Clear
10:55 AM 47.7 °F - 41.5 °F 79% 30.17 in 10.0 mi West 6.9 mph - N/A   Clear
11:15 AM 47.7 °F - 40.8 °F 77% 30.16 in 10.0 mi West 5.8 mph - N/A   Clear
11:35 AM 47.7 °F - 38.8 °F 71% 30.16 in 10.0 mi West 6.9 mph - N/A   Clear
11:55 AM 50.0 °F - 40.5 °F 70% 30.15 in 10.0 mi WNW 5.8 mph - N/A   Clear
12:15 PM 50.2 °F - 39.4 °F 66% 30.15 in 10.0 mi West 5.8 mph - N/A   Clear
12:35 PM 52.7 °F - 41.2 °F 65% 30.15 in 10.0 mi West 8.1 mph - N/A   Clear
12:55 PM 52.7 °F - 39.0 °F 60% 30.14 in 10.0 mi WSW 10.4 mph - N/A   Clear
1:15 PM 52.7 °F - 39.2 °F 60% 30.14 in 10.0 mi SW 9.2 mph - N/A   Clear
1:35 PM 52.7 °F - 37.8 °F 57% 30.13 in 10.0 mi WSW 5.8 mph - N/A   Clear
1:55 PM 52.9 °F - 38.3 °F 58% 30.12 in 10.0 mi West 8.1 mph - N/A   Clear
2:15 PM 55.4 °F - 39.2 °F 54% 30.11 in 10.0 mi West 11.5 mph - N/A   Clear
2:35 PM 55.4 °F - 38.8 °F 54% 30.11 in 10.0 mi West 9.2 mph - N/A   Clear
2:55 PM 55.4 °F - 38.8 °F 54% 30.10 in 10.0 mi WSW 5.8 mph - N/A   Clear
3:15 PM 55.4 °F - 38.8 °F 54% 30.10 in 10.0 mi West 6.9 mph - N/A   Clear
3:35 PM 55.4 °F - 37.4 °F 51% 30.10 in 10.0 mi NW 6.9 mph - N/A   Clear
3:55 PM 55.4 °F - 36.7 °F 49% 30.10 in 10.0 mi NW 6.9 mph - N/A   Clear
4:15 PM 55.4 °F - 36.1 °F 48% 30.10 in 10.0 mi West 5.8 mph - N/A   Clear
4:35 PM 55.4 °F - 36.1 °F 48% 30.10 in 10.0 mi West 6.9 mph - N/A   Clear
4:55 PM 55.4 °F - 36.7 °F 49% 30.09 in 10.0 mi West 8.1 mph - N/A   Clear
5:15 PM 55.4 °F - 36.1 °F 48% 30.09 in 10.0 mi WNW 5.8 mph 10.4 mph N/A   Clear
5:35 PM 55.4 °F - 34.5 °F 45% 30.10 in 10.0 mi WNW 10.4 mph - N/A   Clear
5:55 PM 55.4 °F - 36.9 °F 50% 30.10 in 10.0 mi West 6.9 mph - N/A   Clear
6:15 PM 53.4 °F - 35.2 °F 50% 30.11 in 10.0 mi WNW 5.8 mph - N/A   Clear
6:35 PM 52.7 °F - 36.9 °F 55% 30.11 in 10.0 mi WNW 4.6 mph - N/A   Clear
6:55 PM 52.7 °F - 38.3 °F 58% 30.11 in 10.0 mi WNW 6.9 mph - N/A   Clear
7:15 PM 50.2 °F - 38.5 °F 64% 30.12 in 10.0 mi NW 5.8 mph - N/A   Clear
7:35 PM 48.9 °F - 38.1 °F 66% 30.14 in 10.0 mi WNW 4.6 mph - N/A   Clear
7:55 PM 48.7 °F - 38.3 °F 67% 30.14 in 10.0 mi WNW 4.6 mph - N/A   Clear
8:15 PM 47.7 °F - 41.2 °F 78% 30.15 in 10.0 mi NW 4.6 mph - N/A   Clear
8:35 PM 49.3 °F - 39.2 °F 68% 30.15 in 10.0 mi NNW 5.8 mph - N/A   Clear
8:55 PM 49.5 °F - 39.2 °F 68% 30.15 in 10.0 mi NNW 5.8 mph - N/A   Scattered Clouds
9:15 PM 48.4 °F - 38.8 °F 70% 30.15 in 10.0 mi NNW 6.9 mph - N/A   Scattered Clouds
9:35 PM 47.7 °F - 38.5 °F 70% 30.14 in 10.0 mi NNW 5.8 mph - N/A   Scattered Clouds
9:55 PM 47.7 °F - 39.0 °F 72% 30.14 in 10.0 mi North 4.6 mph - N/A   Clear
10:15 PM 47.7 °F - 38.8 °F 71% 30.15 in 10.0 mi North 3.5 mph - N/A   Scattered Clouds
10:35 PM 47.7 °F - 39.2 °F 72% 30.16 in 10.0 mi NNW 5.8 mph - N/A   Scattered Clouds
10:55 PM 47.7 °F - 38.7 °F 71% 30.16 in 10.0 mi NNW 4.6 mph - N/A   Clear
11:15 PM 47.7 °F - 39.0 °F 72% 30.16 in 10.0 mi North 5.8 mph - N/A   Mostly Cloudy
11:35 PM 47.7 °F - 39.7 °F 74% 30.16 in 10.0 mi NNE 5.8 mph - N/A   Overcast
11:55 PM 47.7 °F - 39.7 °F 74% 30.16 in 10.0 mi NNE 5.8 mph - N/A   Overcast